Regional Weather Roundup
Issued by NWS Northern Indiana

Home | Current Version | Previous Version | Text Only | Print | Product List | Glossary Off
Versions: 1 2 3 4 5 6 7 8 9 10 11 12 13 14 15 16 17 18 19 20 21 22 23 24 25 26 27 28 29 30 31 32 33 34 35 36 37 38 39 40 41 42 43 44 45 46 47 48 49 50

520
ASUS43 KIWX 282300
RWRIWX

KIWX WEATHER ROUNDUP
NATIONAL WEATHER SERVICE NORTHERN INDIANA
700 PM EDT TUE MAR 28 2017

NOTE: "FAIR" INDICATES FEW OR NO CLOUDS BELOW 12,000 FEET WITH NO
SIGNIFICANT WEATHER AND/OR OBSTRUCTIONS TO VISIBILITY.

* THESE STATIONS ARE NOT UNDER NWS QUALITY CONTROL. THEY ALSO MAY NOT
  REPORT WEATHER SUCH AS PRECIPITATION OR FOG.

INZ001>027-290000-
NORTHERN INDIANA

CITY           SKY/WX    TMP DP  RH WIND       PRES   REMARKS
GARY*          CLOUDY    41  37  87 N12       30.17R
SOUTH BEND     CLOUDY    43  40  89 N9        30.14R
ELKHART*       CLOUDY    46  39  76 N6        30.12S
GOSHEN         CLOUDY    47  39  74 NE6       30.12R
MONTICELLO*    CLOUDY    47  40  77 N9        30.12R
ANGOLA*        CLOUDY    46  34  61 NE5       30.11R
FORT WAYNE     CLOUDY    50  43  77 N8        30.10R
PERU/GRISSOM   CLOUDY    48  46  93 N8        30.09

$$
INZ028>050-290000-
CENTRAL INDIANA

CITY           SKY/WX    TMP DP  RH WIND       PRES   REMARKS
LAFAYETTE      CLOUDY    47  41  80 N8        30.11R
KOKOMO*        CLOUDY    49  44  83 N9        30.11R
MUNCIE*        CLOUDY    53  47  79 NE7       30.09R
INDIANAPOLIS   CLOUDY    55  45  68 N9        30.08R

$$
MIZ043>046-050>051-056>058-064>065-071>073-077>080-290000-
SOUTHWEST LOWER MICHIGAN

CITY           SKY/WX    TMP DP  RH WIND       PRES   REMARKS
BATTLE CREEK   CLOUDY    45  38  76 NE8       30.14R
BENTON HARBOR  CLOUDY    41  36  82 VRB6      30.15R
COLDWATER*     CLOUDY    46  40  80 N6        30.13R
HILLSDALE*     CLOUDY    43  37  81 N5        30.11R
HOLLAND        MOSUNNY   45  38  76 NW8       30.16R
GRAND RAPIDS   MOSUNNY   51  38  60 NE6       30.14R
KALAMAZOO      CLOUDY    47  37  68 NE5       30.14R
STURGIS*       CLOUDY    45  39  80 N5        30.12R
THREE RIVERS*  CLOUDY    46  39  77 NE3       30.14R

$$
OHZ001>008-015>018-024>025-290000-
NORTHWEST OHIO

CITY           SKY/WX    TMP DP  RH WIND       PRES   REMARKS
DEFIANCE       CLOUDY    48  40  73 N7        30.11R
FINDLAY        CLOUDY    49  40  71 NE9       30.10R
TOLEDO EXPRESS CLOUDY    47  40  76 N12       30.12R
TOLEDO METCALF CLOUDY    47  40  76 E6        30.13R
LIMA           CLOUDY    49  44  83 N8        30.09R

$$
AND FOR LAKE MICHIGAN COASTAL AND OPEN LAKE BUOY OBSERVATIONS

STATION/POSITION TEMP    WIND        PRES    VSBY  WAVE
                 AIR SEA DIR/SP/G                  HT/PER
                 (F)     (DEG/KT/KT) (MB)    (MI)  (FT/S)
CALUMET HARBOR    38     350/ 11/ 14 1020.7S
MICHIGAN CITY     38      10/  7/  7   N/A
BURNS HARBOR      38      20/  7/ 11 1021.7R

$$
&&




USA.gov is the U.S. government's official web portal to all federal, state and local government web resources and services.